DW7995 Weather Reports


Display with metric or nautical units.
time (UTC)temp
F
wind
direction
speed
MPH
gust
MPH
rain 1hr
in
rain 24hr
in
rain mn
in
humidity
%
barometer
mb
20260903123101 64 0 0.0 0.0 0.00 0.01 0.00 72 1021.2
20260903122541 65 0 0.0 0.0 0.00 0.01 0.00 72 1021.2
20260903122040 66 0 0.0 0.0 0.00 0.01 0.00 70 1021.2
20260903121555 67 0 0.0 0.0 0.00 0.01 0.00 69 1021.2
20260903121039 67 0 0.0 0.0 0.00 0.01 0.00 69 1021.2
20260903120539 67 0 0.0 0.0 0.00 0.01 0.00 69 1021.2
20260903120106 67 0 0.0 0.0 0.00 0.01 0.00 68 1021.2
20260903115542 67 0 0.0 0.0 0.00 0.01 0.00 69 1021.2
20260903115042 67 0 0.0 0.0 0.00 0.01 0.00 68 1021.2
20260903114558 68 0 0.0 0.0 0.00 0.01 0.00 67 1021.2
20260903114038 69 0 0.0 0.0 0.00 0.01 0.00 65 1021.2
20260903113540 69 0 0.0 0.0 0.00 0.01 0.00 65 1021.2
20260903113056 69 0 0.0 0.0 0.00 0.01 0.00 65 1021.2
20260903112541 70 0 0.0 0.0 0.00 0.01 0.00 63 1021.2
20260903112040 71 0 0.0 0.0 0.00 0.01 0.00 62 1021.2
20260903111557 71 0 0.0 0.0 0.00 0.01 0.00 61 1021.2
20260903111039 72 0 0.0 0.0 0.00 0.01 0.00 60 1021.2
20260903110540 72 0 0.0 2.0 0.00 0.01 0.00 60 1021.2
20260903105540 73 231 1.0 12.0 0.00 0.01 0.00 59 1021.2
20260903105042 73 0 0.0 12.0 0.00 0.01 0.00 59 1021.2
20260903104559 73 0 3.0 12.0 0.00 0.01 0.00 58 1021.2
20260903104042 73 337 2.0 12.0 0.00 0.01 0.00 58 1021.2
20260903103543 74 222 6.0 13.0 0.00 0.01 0.00 58 1021.2
20260903103104 74 214 5.0 13.0 0.00 0.01 0.00 58 1021.2
20260903102540 74 137 6.0 13.0 0.00 0.01 0.00 58 1021.2
20260903102043 73 148 5.0 12.0 0.00 0.01 0.00 58 1021.2
20260903101602 73 166 5.0 16.0 0.00 0.01 0.00 58 1021.2
20260903101039 74 127 6.0 16.0 0.00 0.01 0.00 58 1021.2
20260903100540 74 264 5.0 12.0 0.00 0.01 0.00 58 1021.2
20260903095539 74 115 6.0 13.0 0.00 0.01 0.00 58 1021.2
20260903095039 73 207 3.0 13.0 0.00 0.01 0.00 58 1021.2
20260903094601 74 176 5.0 12.0 0.00 0.01 0.00 58 1021.2
20260903094039 73 207 6.0 17.0 0.00 0.01 0.00 58 1021.2
20260903093540 73 132 5.0 17.0 0.00 0.01 0.00 58 1021.2
20260903093119 74 127 6.0 17.0 0.00 0.01 0.00 58 1021.2
20260903092539 74 0 5.0 17.0 0.00 0.01 0.00 58 1021.2
20260903092040 74 262 5.0 17.0 0.00 0.01 0.00 58 1021.2
20260903091601 74 223 5.0 16.0 0.00 0.01 0.00 58 1021.2
20260903091040 74 223 6.0 17.0 0.00 0.01 0.00 58 1021.2
20260903090539 74 157 4.0 17.0 0.00 0.01 0.00 57 1021.2
20260903090058 74 116 7.0 16.0 0.00 0.01 0.00 58 1021.2
20260903085538 74 211 3.0 16.0 0.00 0.01 0.00 58 1021.2
20260903085040 74 206 4.0 16.0 0.00 0.01 0.00 57 1021.2
20260903084600 74 204 5.0 19.0 0.00 0.01 0.00 57 1021.2
20260903084040 74 245 4.0 19.0 0.00 0.01 0.00 57 1021.2
20260903083540 74 239 5.0 19.0 0.00 0.01 0.00 57 1021.2
20260903083102 74 80 3.0 15.0 0.00 0.01 0.00 57 1021.2
20260903082539 74 248 4.0 18.0 0.00 0.01 0.00 57 1021.2
20260903082039 74 155 4.0 19.0 0.00 0.01 0.00 57 1021.2
20260903081555 74 150 5.0 19.0 0.00 0.01 0.00 57 1021.2
20260903081040 74 121 5.0 16.0 0.00 0.01 0.00 57 1021.2
20260903080540 74 302 6.0 18.0 0.00 0.01 0.00 57 1021.2
20260903080110 74 223 3.0 18.0 0.00 0.01 0.00 56 1021.2
20260903075540 74 198 5.0 16.0 0.00 0.01 0.00 56 1021.2
20260903075040 74 243 5.0 17.0 0.00 0.01 0.00 56 1021.2
20260903074620 74 120 3.0 17.0 0.00 0.01 0.00 56 1021.2
20260903074039 74 207 4.0 13.0 0.00 0.01 0.00 56 1021.2
20260903073540 74 238 5.0 16.0 0.00 0.01 0.00 57 1021.2
20260903073108 74 250 4.0 16.0 0.00 0.01 0.00 57 1021.2
20260903072540 73 0 4.0 9.0 0.00 0.01 0.00 56 1021.2
20260903072039 73 221 2.0 8.0 0.00 0.01 0.00 56 1021.2
20260903071607 73 0 2.0 8.0 0.00 0.01 0.00 56 1021.2
20260903071040 72 272 0.0 8.0 0.00 0.01 0.00 57 1021.2
20260903070544 73 0 0.0 7.0 0.00 0.01 0.00 56 1021.2
20260903070057 72 0 2.0 7.0 0.00 0.01 0.00 57 1021.2
20260903065540 71 291 2.0 6.0 0.00 0.01 0.00 59 1021.2
20260903065039 68 0 0.0 5.0 0.00 0.01 0.00 63 1021.2
20260903064558 66 0 0.0 2.0 0.00 0.01 0.00 69 1021.2
20260903064040 63 0 0.0 0.0 0.00 0.01 0.00 73 1021.2
20260903063540 60 0 0.0 0.0 0.00 0.01 0.00 78 1021.2
20260903063054 60 0 0.0 0.0 0.00 0.01 0.00 79 1021.2
20260903062540 60 0 0.0 0.0 0.00 0.01 0.00 78 1021.2
20260903062041 60 0 0.0 0.0 0.00 0.01 0.00 78 1021.2
20260903061559 60 0 0.0 0.0 0.00 0.01 0.00 79 1021.2
20260903061039 60 0 0.0 0.0 0.00 0.01 0.00 79 1021.2
20260903060540 60 0 0.0 0.0 0.00 0.01 0.00 78 1021.2
20260903055540 61 0 0.0 0.0 0.00 0.01 0.00 78 1021.2
20260903055040 61 0 0.0 0.0 0.00 0.01 0.00 78 1021.2
20260903054601 61 0 0.0 0.0 0.00 0.01 0.00 77 1021.2
20260903054040 61 0 0.0 0.0 0.00 0.01 0.00 78 1021.2
20260903053540 61 0 0.0 0.0 0.00 0.01 0.00 77 1021.2
20260903053052 61 0 0.0 0.0 0.00 0.01 0.00 77 1021.2
20260903052540 61 0 0.0 0.0 0.00 0.01 0.00 77 1021.2
20260903052040 61 0 0.0 0.0 0.00 0.01 0.00 77 1021.2
20260903051558 61 0 0.0 0.0 0.00 0.01 0.00 77 1021.2
20260903051039 61 0 0.0 0.0 0.00 0.01 0.00 77 1021.2
20260903050539 60 0 0.0 0.0 0.00 0.01 0.00 77 1021.2
20260903050100 60 0 0.0 0.0 0.00 0.01 0.00 77 1021.2
20260903045539 60 0 0.0 0.0 0.00 0.01 0.01 78 1021.2
20260903045039 60 0 0.0 0.0 0.00 0.01 0.01 76 1021.2
20260903044557 60 0 0.0 0.0 0.00 0.01 0.01 75 1021.2
20260903044039 61 0 0.0 0.0 0.00 0.01 0.01 75 1021.2
20260903043539 61 0 0.0 0.0 0.00 0.01 0.01 75 1021.2
20260903043102 62 0 0.0 0.0 0.00 0.01 0.01 74 1021.2
20260903042543 62 0 0.0 0.0 0.00 0.01 0.01 75 1021.2
20260903042040 61 0 0.0 0.0 0.00 0.01 0.01 75 1021.2
20260903041556 61 0 0.0 0.0 0.00 0.01 0.01 76 1021.2
20260903041044 61 0 0.0 0.0 0.00 0.01 0.01 75 1021.2
20260903040539 61 0 0.0 0.0 0.00 0.01 0.01 74 1021.2
20260903040057 62 0 0.0 0.0 0.00 0.01 0.01 74 1021.2
20260903035539 62 0 0.0 0.0 0.00 0.01 0.01 73 1021.2
20260903035040 62 0 0.0 0.0 0.00 0.01 0.01 74 1021.2
20260903034605 62 0 0.0 0.0 0.00 0.01 0.01 73 1021.2
20260903034040 62 0 0.0 0.0 0.00 0.01 0.01 73 1021.2
20260903033539 62 0 0.0 0.0 0.00 0.01 0.01 73 1021.2
20260903033116 62 0 0.0 0.0 0.00 0.01 0.01 73 1021.2
20260903032540 62 0 0.0 0.0 0.00 0.01 0.01 72 1021.2
20260903032039 62 0 0.0 0.0 0.00 0.01 0.01 72 1021.2
20260903031633 63 0 0.0 0.0 0.00 0.01 0.01 71 1021.2
20260903031042 63 0 0.0 0.0 0.00 0.01 0.01 70 1021.2
20260903030539 63 0 0.0 0.0 0.00 0.01 0.01 71 1021.2
20260903030055 64 0 0.0 0.0 0.00 0.01 0.01 70 1021.2
20260903025540 64 0 0.0 0.0 0.00 0.01 0.01 70 1021.2
20260903025040 64 0 0.0 0.0 0.00 0.01 0.01 70 1021.2
20260903024557 64 0 0.0 0.0 0.00 0.01 0.01 69 1021.2
20260903024040 65 0 0.0 0.0 0.00 0.01 0.01 69 1021.2
20260903023542 65 0 0.0 0.0 0.00 0.01 0.01 68 1021.2
20260903023051 65 0 0.0 0.0 0.00 0.01 0.01 67 1021.2
20260903022542 66 0 0.0 0.0 0.00 0.01 0.01 67 1021.2
20260903022040 67 0 0.0 0.0 0.00 0.01 0.01 66 1021.2
20260903021552 67 0 0.0 0.0 0.00 0.01 0.01 64 1021.2
20260903021040 68 0 0.0 0.0 0.00 0.01 0.01 64 1021.2
20260903020542 68 0 0.0 0.0 0.00 0.01 0.01 63 1021.2
20260903020055 69 0 0.0 0.0 0.00 0.01 0.01 61 1021.2
20260903015540 70 0 0.0 0.0 0.00 0.01 0.01 61 1021.2
20260903015041 70 0 0.0 0.0 0.00 0.01 0.01 59 1021.2
20260903014557 71 0 0.0 0.0 0.00 0.01 0.01 58 1021.2
20260903014039 72 0 0.0 0.0 0.00 0.01 0.01 58 1021.2
20260903013540 72 0 0.0 0.0 0.00 0.01 0.01 57 1021.2
20260903013056 73 0 0.0 0.0 0.00 0.01 0.01 56 1021.2
20260903012540 74 0 0.0 0.0 0.00 0.01 0.01 54 1021.2
20260903012039 74 0 0.0 0.0 0.00 0.01 0.01 53 1021.2
20260903011558 75 0 0.0 0.0 0.00 0.01 0.01 52 1021.2
20260903011043 75 0 0.0 1.0 0.00 0.01 0.01 52 1021.2
20260903010539 76 0 0.0 4.0 0.00 0.01 0.01 51 1021.2
20260903010056 77 0 0.0 10.0 0.00 0.01 0.01 50 1021.2
20260903005540 77 69 1.0 10.0 0.00 0.01 0.01 48 1021.2
20260903005038 79 67 0.0 4.0 0.00 0.01 0.01 47 1021.2
20260903004551 79 0 0.0 3.0 0.00 0.01 0.01 45 1021.2
20260903004040 79 0 0.0 8.0 0.00 0.01 0.01 45 1021.2
20260903003540 80 68 0.0 8.0 0.00 0.01 0.01 44 1021.2
20260903003101 82 70 1.0 7.0 0.00 0.01 0.01 41 1021.2
20260903002539 83 0 0.0 0.0 0.00 0.01 0.01 39 1021.2
20260903002038 83 0 0.0 0.0 0.00 0.01 0.01 39 1021.2
20260903001550 84 0 0.0 0.0 0.00 0.01 0.01 38 1021.2
20260903001039 83 0 0.0 0.0 0.00 0.01 0.01 39 1021.2
20260903000539 84 0 0.0 0.0 0.00 0.01 0.01 38 1021.2
20260903000100 84 0 0.0 0.0 0.00 0.01 0.01 38 1021.2
20260902235540 85 0 0.0 0.0 0.00 0.01 0.01 38 1021.2
20260902235039 84 0 0.0 3.0 0.00 0.01 0.01 37 1021.2
20260902234606 84 0 0.0 3.0 0.00 0.01 0.01 38 1021.2
20260902234039 85 226 0.0 3.0 0.00 0.01 0.01 37 1021.2
20260902233539 85 0 0.0 4.0 0.00 0.01 0.01 38 1021.2
20260902233101 84 0 0.0 5.0 0.00 0.01 0.01 39 1021.2
20260902232544 84 182 1.0 5.0 0.00 0.01 0.01 38 1021.2
20260902232039 84 0 1.0 5.0 0.00 0.01 0.01 38 1021.2
20260902231608 84 0 0.0 5.0 0.00 0.01 0.01 39 1021.2
20260902231043 84 234 0.0 9.0 0.00 0.01 0.01 38 1021.2
20260902230539 84 0 1.0 9.0 0.00 0.01 0.01 37 1021.2
20260902230059 84 160 1.0 5.0 0.00 0.01 0.01 39 1021.2
20260902225539 83 0 0.0 7.0 0.00 0.02 0.01 41 1021.2
20260902225039 83 151 1.0 7.0 0.00 0.02 0.01 42 1021.2
20260902224604 83 214 2.0 6.0 0.00 0.02 0.01 42 1021.2
20260902224039 83 56 0.0 7.0 0.00 0.02 0.01 43 1021.2
20260902223539 81 160 1.0 7.0 0.00 0.02 0.01 45 1021.2
20260902223101 81 96 3.0 7.0 0.00 0.02 0.01 46 1021.2
20260902222540 80 120 3.0 8.0 0.00 0.02 0.01 46 1021.2
20260902222039 79 191 3.0 8.0 0.00 0.02 0.01 48 1021.2
20260902221603 79 143 4.0 8.0 0.00 0.02 0.01 48 1021.2
20260902221039 78 105 4.0 9.0 0.00 0.02 0.01 50 1021.2
20260902220539 77 0 1.0 9.0 0.00 0.02 0.01 52 1021.2
20260902220100 77 134 3.0 9.0 0.00 0.02 0.01 52 1021.2
20260902215543 78 130 4.0 9.0 0.00 0.02 0.01 52 1021.2
20260902215039 79 184 1.0 10.0 0.00 0.02 0.01 50 1021.2
20260902214550 80 126 2.0 10.0 0.00 0.02 0.01 48 1021.2
20260902214039 82 120 0.0 0.0 0.00 0.02 0.01 41 1021.2
20260902213539 82 0 0.0 0.0 0.00 0.02 0.01 41 1021.2
20260902213105 82 0 0.0 0.0 0.00 0.02 0.01 44 1021.2
20260902212539 81 0 0.0 1.0 0.00 0.02 0.01 44 1021.2
20260902212042 81 0 0.0 1.0 0.00 0.02 0.01 45 1021.2
20260902211601 81 0 0.0 3.0 0.00 0.02 0.01 46 1021.2
20260902211039 80 0 0.0 4.0 0.00 0.02 0.01 47 1021.2
20260902210539 81 0 0.0 5.0 0.00 0.02 0.01 48 1021.2
20260902210051 81 0 0.0 5.0 0.00 0.02 0.01 49 1021.2
20260902205538 81 0 0.0 3.0 0.00 0.02 0.01 48 1021.2
20260902205042 81 0 1.0 3.0 0.00 0.02 0.01 46 1021.2
20260902204602 81 288 0.0 0.0 0.00 0.02 0.01 45 1021.2
20260902204040 81 0 0.0 5.0 0.00 0.02 0.01 46 1021.2
20260902203540 81 0 0.0 5.0 0.00 0.02 0.01 46 1021.2
20260902203120 81 0 1.0 5.0 0.00 0.02 0.01 47 1021.2
20260902202542 81 193 1.0 7.0 0.00 0.02 0.01 48 1021.2
20260902202039 81 0 3.0 7.0 0.00 0.02 0.01 47 1021.2
20260902201553 81 245 4.0 7.0 0.00 0.02 0.01 48 1021.2
20260902201039 81 241 1.0 8.0 0.00 0.02 0.01 47 1021.2
20260902200539 81 0 0.0 8.0 0.00 0.02 0.01 46 1021.2
20260902200100 81 226 2.0 8.0 0.00 0.02 0.01 46 1021.2
20260902195540 81 159 1.0 7.0 0.00 0.05 0.01 50 1021.2
20260902195039 80 205 2.0 6.0 0.00 0.05 0.01 52 1021.2
20260902194559 78 205 1.0 6.0 0.00 0.05 0.01 56 1021.2
20260902194039 78 0 0.0 6.0 0.01 0.05 0.01 57 1021.2
20260902193540 76 212 0.0 7.0 0.01 0.05 0.01 57 1021.2
20260902193052 75 0 2.0 9.0 0.01 0.05 0.01 58 1021.2
20260902192538 75 283 2.0 9.0 0.01 0.05 0.01 61 1021.2
20260902192043 74 259 2.0 8.0 0.01 0.05 0.01 62 1021.2
20260902191559 73 233 2.0 7.0 0.01 0.05 0.01 68 1021.2
20260902191039 72 252 2.0 7.0 0.01 0.05 0.01 67 1021.2
20260902190538 71 0 2.0 7.0 0.01 0.05 0.01 68 1021.2
20260902190100 71 219 1.0 6.0 0.01 0.05 0.01 75 1021.2
20260902185540 71 0 0.0 6.0 0.01 0.19 0.01 74 1021.2
20260902185039 70 214 1.0 6.0 0.01 0.19 0.01 70 1021.2
20260902184559 70 0 0.0 2.0 0.01 0.19 0.01 77 1021.2
20260902184039 70 0 0.0 0.0 0.00 0.18 0.00 78 1021.2
20260902183540 70 0 0.0 1.0 0.00 0.18 0.00 78 1021.2
20260902183118 70 0 0.0 7.0 0.00 0.18 0.00 76 1021.2
20260902182539 70 0 3.0 7.0 0.00 0.18 0.00 72 1021.2
20260902182044 72 133 2.0 5.0 0.00 0.18 0.00 66 1021.2
20260902181558 73 153 1.0 5.0 0.00 0.18 0.00 62 1021.2
20260902181040 73 0 1.0 7.0 0.00 0.18 0.00 62 1021.2
20260902180539 74 56 3.0 10.0 0.00 0.18 0.00 59 1021.2
20260902180055 75 148 2.0 10.0 0.00 0.18 0.00 57 1021.2
20260902175540 77 64 4.0 10.0 0.00 0.18 0.00 53 1021.2
20260902175039 78 0 0.0 6.0 0.00 0.18 0.00 50 1021.2
20260902174608 78 0 0.0 7.0 0.00 0.18 0.00 50 1021.2
20260902174038 78 215 1.0 7.0 0.00 0.18 0.00 49 1021.2
20260902173539 78 158 3.0 8.0 0.00 0.18 0.00 49 1021.2
20260902173059 79 245 3.0 9.0 0.00 0.18 0.00 48 1021.2
20260902172539 78 237 4.0 9.0 0.00 0.18 0.00 48 1021.2
20260902172042 78 243 5.0 9.0 0.00 0.18 0.00 49 1021.2
20260902171605 79 224 3.0 7.0 0.00 0.18 0.00 48 1021.2
20260902171042 79 284 2.0 6.0 0.00 0.18 0.00 47 1021.2
20260902170539 79 212 0.0 5.0 0.00 0.18 0.00 47 1021.2
20260902165539 79 293 0.0 7.0 0.00 0.18 0.00 47 1021.2
20260902165039 80 293 1.0 7.0 0.00 0.18 0.00 47 1021.2
20260902164600 80 0 0.0 8.0 0.00 0.18 0.00 45 1021.2
20260902164039 80 270 0.0 8.0 0.00 0.18 0.00 47 1021.2
20260902163539 80 0 1.0 8.0 0.00 0.18 0.00 46 1021.2
20260902163116 81 0 1.0 7.0 0.00 0.18 0.00 45 1021.2
20260902162537 81 0 0.0 7.0 0.00 0.18 0.00 45 1021.2
20260902162037 82 283 0.0 7.0 0.00 0.18 0.00 43 1021.2
20260902161603 82 0 1.0 7.0 0.00 0.18 0.00 44 1021.2
20260902161037 82 0 1.0 5.0 0.00 0.18 0.00 44 1021.2
20260902160539 82 0 2.0 4.0 0.00 0.18 0.00 45 1021.2
20260902155539 81 107 2.0 5.0 0.00 0.18 0.00 45 1021.2
20260902155039 80 0 1.0 4.0 0.00 0.18 0.00 46 1021.2
20260902154554 80 101 1.0 4.0 0.00 0.18 0.00 46 1021.2
20260902154036 80 0 0.0 2.0 0.00 0.18 0.00 47 1021.2
20260902153537 78 0 0.0 5.0 0.00 0.18 0.00 49 1021.2
20260902153059 79 0 0.0 6.0 0.00 0.18 0.00 48 1021.2
20260902152536 79 0 0.0 8.0 0.00 0.18 0.00 48 1021.2
20260902152039 79 229 3.0 8.0 0.00 0.18 0.00 47 1021.2
20260902151555 79 240 1.0 6.0 0.00 0.18 0.00 48 1021.2
20260902151039 79 225 1.0 6.0 0.00 0.18 0.00 48 1021.2
20260902150538 78 224 2.0 6.0 0.00 0.18 0.00 49 1021.2
20260902150056 79 236 3.0 6.0 0.00 0.18 0.00 48 1021.2
20260902145538 79 179 1.0 5.0 0.00 0.18 0.00 48 1021.2
20260902145039 79 0 0.0 4.0 0.00 0.18 0.00 48 1021.2
20260902144553 79 155 2.0 4.0 0.00 0.18 0.00 48 1021.2
20260902144038 79 0 1.0 4.0 0.00 0.18 0.00 48 1021.2
20260902143543 79 0 0.0 9.0 0.00 0.18 0.00 48 1021.2
20260902143048 78 140 4.0 9.0 0.00 0.18 0.00 49 1021.2
20260902142540 79 242 2.0 6.0 0.00 0.18 0.00 49 1021.2
20260902142038 78 165 2.0 5.0 0.00 0.18 0.00 49 1021.2
20260902141557 78 158 0.0 0.0 0.00 0.18 0.00 50 1021.2
20260902141038 78 0 0.0 0.0 0.00 0.18 0.00 53 1021.2
20260902140538 77 0 0.0 0.0 0.00 0.18 0.00 55 1021.2
20260902140054 76 0 0.0 0.0 0.00 0.18 0.00 56 1021.2
20260902135538 75 0 0.0 0.0 0.00 0.18 0.00 58 1021.2
20260902135040 75 0 0.0 0.0 0.00 0.18 0.00 60 1021.2
20260902134557 74 0 0.0 0.0 0.00 0.18 0.00 59 1021.2
20260902134038 74 0 0.0 0.0 0.00 0.18 0.00 62 1021.2
20260902133541 73 0 0.0 3.0 0.00 0.18 0.00 62 1021.2
20260902133108 72 0 0.0 3.0 0.00 0.18 0.00 64 1021.2
20260902132538 70 0 0.0 1.0 0.00 0.18 0.00 69 1021.2
20260902132038 69 0 0.0 0.0 0.00 0.18 0.00 70 1021.2
20260902131601 68 0 0.0 0.0 0.00 0.18 0.00 74 1021.2
20260902131038 67 0 0.0 1.0 0.00 0.18 0.00 73 1021.2
20260902130539 66 0 0.0 1.0 0.00 0.18 0.00 75 1021.2
20260902130052 65 0 0.0 1.0 0.00 0.18 0.00 75 1021.2
20260902125539 65 0 0.0 0.0 0.00 0.18 0.00 75 1021.2
20260902125039 65 0 0.0 0.0 0.00 0.18 0.00 76 1021.2
20260902124554 65 0 0.0 0.0 0.00 0.18 0.00 75 1021.2
20260902124040 65 0 0.0 0.0 0.00 0.18 0.00 73 1021.2
20260902123543 66 0 0.0 0.0 0.00 0.18 0.00 73 1021.2